| time (UTC) | temp F | wind direction | speed knots | gust knots | rain 1hr in | rain 24hr in | rain mn in | humidity % | barometer mb |
| 20260508065547 | 50 | 95 | 1.7 | 5.2 | 0.00 | 0.25 | 0.00 | 75 | 1010.8 |
| 20260508065046 | 50 | 138 | 0.9 | 2.6 | 0.00 | 0.25 | 0.00 | 75 | 1011.1 |
| 20260508064605 | 50 | 164 | 0.0 | 2.6 | 0.00 | 0.25 | 0.00 | 75 | 1011.0 |
| 20260508064044 | 50 | 41 | 0.9 | 3.5 | 0.00 | 0.25 | 0.00 | 76 | 1010.9 |
| 20260508063544 | 50 | 88 | 0.9 | 4.3 | 0.00 | 0.25 | 0.00 | 75 | 1011.0 |
| 20260508063049 | 50 | 127 | 0.0 | 6.1 | 0.00 | 0.25 | 0.00 | 75 | 1010.9 |
| 20260508062542 | 50 | 74 | 1.7 | 6.1 | 0.00 | 0.25 | 0.00 | 76 | 1010.8 |
| 20260508062042 | 50 | 116 | 2.6 | 6.1 | 0.00 | 0.25 | 0.00 | 76 | 1010.8 |
| 20260508061555 | 50 | 83 | 1.7 | 6.1 | 0.00 | 0.25 | 0.00 | 76 | 1010.7 |
| 20260508061043 | 50 | 100 | 1.7 | 5.2 | 0.00 | 0.25 | 0.00 | 76 | 1010.7 |
| 20260508060546 | 50 | 99 | 0.9 | 4.3 | 0.00 | 0.25 | 0.00 | 77 | 1010.7 |
| 20260508060052 | 50 | 0 | 0.0 | 6.1 | 0.00 | 0.25 | 0.00 | 77 | 1010.8 |
| 20260508055545 | 49 | 92 | 1.7 | 6.1 | 0.00 | 0.25 | 0.00 | 77 | 1010.8 |
| 20260508055045 | 49 | 84 | 2.6 | 5.2 | 0.00 | 0.25 | 0.00 | 77 | 1010.7 |
| 20260508054551 | 49 | 76 | 0.9 | 7.0 | 0.00 | 0.25 | 0.00 | 77 | 1010.7 |
| 20260508054045 | 49 | 120 | 1.7 | 7.0 | 0.00 | 0.25 | 0.00 | 77 | 1010.8 |
| 20260508053545 | 50 | 14 | 0.9 | 4.3 | 0.00 | 0.25 | 0.00 | 77 | 1010.8 |
| 20260508053103 | 49 | 5 | 1.7 | 7.0 | 0.00 | 0.25 | 0.00 | 77 | 1011.0 |
| 20260508052545 | 49 | 3 | 2.6 | 7.0 | 0.00 | 0.25 | 0.00 | 77 | 1011.0 |
| 20260508052042 | 50 | 5 | 0.0 | 4.3 | 0.00 | 0.25 | 0.00 | 77 | 1011.0 |
| 20260508051552 | 50 | 0 | 0.9 | 4.3 | 0.00 | 0.25 | 0.00 | 76 | 1010.9 |
| 20260508051045 | 50 | 9 | 0.9 | 3.5 | 0.00 | 0.25 | 0.00 | 76 | 1010.9 |
| 20260508050545 | 50 | 110 | 0.9 | 5.2 | 0.00 | 0.25 | 0.00 | 76 | 1010.8 |
| 20260508050047 | 50 | 102 | 0.9 | 5.2 | 0.00 | 0.25 | 0.00 | 76 | 1010.8 |
| 20260508045542 | 50 | 41 | 0.0 | 4.3 | 0.00 | 0.25 | 0.00 | 76 | 1010.8 |
| 20260508045044 | 50 | 55 | 0.0 | 4.3 | 0.00 | 0.25 | 0.00 | 76 | 1010.9 |
| 20260508044551 | 50 | 64 | 1.7 | 4.3 | 0.00 | 0.25 | 0.00 | 76 | 1010.8 |
| 20260508044042 | 50 | 79 | 0.9 | 3.5 | 0.00 | 0.25 | 0.00 | 76 | 1010.9 |
| 20260508043542 | 50 | 155 | 0.0 | 3.5 | 0.00 | 0.25 | 0.00 | 76 | 1010.7 |
| 20260508043101 | 50 | 106 | 1.7 | 3.5 | 0.00 | 0.25 | 0.00 | 76 | 1010.7 |
| 20260508042545 | 50 | 116 | 0.9 | 3.5 | 0.00 | 0.25 | 0.00 | 76 | 1010.6 |
| 20260508042044 | 50 | 0 | 0.0 | 3.5 | 0.00 | 0.25 | 0.00 | 76 | 1010.5 |
| 20260508041550 | 50 | 76 | 0.0 | 3.5 | 0.00 | 0.25 | 0.00 | 76 | 1010.5 |
| 20260508041045 | 50 | 47 | 0.9 | 3.5 | 0.00 | 0.25 | 0.00 | 76 | 1010.5 |
| 20260508040544 | 50 | 0 | 0.0 | 3.5 | 0.00 | 0.25 | 0.00 | 76 | 1010.3 |
| 20260508040050 | 50 | 91 | 0.0 | 2.6 | 0.00 | 0.25 | 0.00 | 76 | 1010.4 |
| 20260508035543 | 50 | 86 | 0.0 | 2.6 | 0.00 | 0.25 | 0.00 | 76 | 1010.4 |
| 20260508035044 | 50 | 0 | 0.0 | 2.6 | 0.00 | 0.25 | 0.00 | 76 | 1010.3 |
| 20260508034547 | 50 | 0 | 0.0 | 2.6 | 0.00 | 0.25 | 0.00 | 77 | 1010.3 |
| 20260508034044 | 50 | 0 | 0.9 | 3.5 | 0.00 | 0.25 | 0.00 | 77 | 1010.3 |
| 20260508033543 | 50 | 0 | 0.0 | 3.5 | 0.00 | 0.25 | 0.00 | 77 | 1010.3 |
| 20260508033049 | 50 | 0 | 1.7 | 3.5 | 0.00 | 0.25 | 0.00 | 76 | 1010.2 |
| 20260508032542 | 50 | 25 | 0.9 | 3.5 | 0.00 | 0.25 | 0.00 | 76 | 1010.4 |
| 20260508032043 | 50 | 121 | 0.0 | 2.6 | 0.00 | 0.25 | 0.00 | 76 | 1010.4 |
| 20260508031554 | 50 | 24 | 0.9 | 3.5 | 0.00 | 0.25 | 0.00 | 76 | 1010.5 |
| 20260508031042 | 50 | 70 | 0.9 | 3.5 | 0.00 | 0.25 | 0.00 | 76 | 1010.5 |
| 20260508030544 | 50 | 74 | 0.0 | 2.6 | 0.00 | 0.25 | 0.00 | 77 | 1010.6 |
| 20260508030058 | 50 | 51 | 0.0 | 3.5 | 0.00 | 0.25 | 0.00 | 77 | 1010.5 |
| 20260508025545 | 50 | 0 | 1.7 | 3.5 | 0.00 | 0.25 | 0.00 | 77 | 1010.4 |
| 20260508025044 | 50 | 16 | 0.9 | 2.6 | 0.00 | 0.25 | 0.00 | 76 | 1010.4 |
| 20260508024556 | 50 | 112 | 0.0 | 2.6 | 0.00 | 0.25 | 0.00 | 77 | 1010.3 |
| 20260508024045 | 50 | 0 | 0.0 | 2.6 | 0.00 | 0.25 | 0.00 | 77 | 1010.4 |
| 20260508023544 | 50 | 0 | 0.0 | 2.6 | 0.00 | 0.25 | 0.00 | 77 | 1010.3 |
| 20260508023050 | 50 | 0 | 0.0 | 4.3 | 0.00 | 0.25 | 0.00 | 77 | 1010.3 |
| 20260508022545 | 50 | 77 | 0.0 | 4.3 | 0.00 | 0.25 | 0.00 | 77 | 1010.3 |
| 20260508022045 | 50 | 48 | 0.9 | 3.5 | 0.00 | 0.25 | 0.00 | 77 | 1010.2 |
| 20260508021551 | 50 | 109 | 0.9 | 3.5 | 0.00 | 0.25 | 0.00 | 77 | 1010.2 |
| 20260508021042 | 50 | 0 | 0.0 | 1.7 | 0.00 | 0.25 | 0.00 | 77 | 1010.3 |
| 20260508020542 | 50 | 0 | 0.0 | 2.6 | 0.00 | 0.25 | 0.00 | 77 | 1010.4 |
| 20260508020056 | 50 | 0 | 0.0 | 2.6 | 0.00 | 0.25 | 0.00 | 77 | 1010.6 |
| 20260508015542 | 50 | 0 | 0.0 | 2.6 | 0.00 | 0.25 | 0.00 | 77 | 1010.6 |
| 20260508015044 | 50 | 52 | 0.9 | 6.1 | 0.00 | 0.25 | 0.00 | 77 | 1010.6 |
| 20260508014550 | 50 | 0 | 0.0 | 6.1 | 0.00 | 0.25 | 0.00 | 77 | 1010.7 |
| 20260508014043 | 50 | 120 | 0.9 | 6.1 | 0.00 | 0.25 | 0.00 | 77 | 1010.8 |
| 20260508013544 | 50 | 76 | 0.9 | 3.5 | 0.00 | 0.25 | 0.00 | 77 | 1011.0 |
| 20260508013050 | 50 | 6 | 0.9 | 3.5 | 0.00 | 0.25 | 0.00 | 77 | 1011.2 |
| 20260508012544 | 50 | 0 | 0.0 | 3.5 | 0.00 | 0.25 | 0.00 | 77 | 1011.1 |
| 20260508012046 | 50 | 0 | 0.0 | 5.2 | 0.00 | 0.25 | 0.00 | 77 | 1011.2 |
| 20260508011550 | 51 | 169 | 0.9 | 5.2 | 0.00 | 0.25 | 0.00 | 77 | 1011.2 |
| 20260508011045 | 51 | 143 | 1.7 | 7.8 | 0.00 | 0.25 | 0.00 | 77 | 1011.2 |
| 20260508010543 | 51 | 42 | 2.6 | 7.8 | 0.00 | 0.25 | 0.00 | 77 | 1011.1 |
| 20260508010055 | 51 | 152 | 1.7 | 7.0 | 0.00 | 0.25 | 0.00 | 77 | 1011.2 |
| 20260508005543 | 51 | 114 | 1.7 | 7.0 | 0.00 | 0.25 | 0.00 | 77 | 1011.3 |
| 20260508005046 | 51 | 141 | 1.7 | 7.0 | 0.00 | 0.25 | 0.00 | 77 | 1011.3 |
| 20260508004554 | 51 | 122 | 0.9 | 5.2 | 0.00 | 0.25 | 0.00 | 77 | 1011.4 |
| 20260508004045 | 51 | 75 | 0.9 | 4.3 | 0.00 | 0.25 | 0.00 | 77 | 1011.4 |
| 20260508003542 | 52 | 128 | 0.9 | 5.2 | 0.00 | 0.25 | 0.00 | 77 | 1011.5 |
| 20260508003049 | 52 | 130 | 0.9 | 5.2 | 0.00 | 0.25 | 0.00 | 77 | 1011.6 |
| 20260508002542 | 52 | 0 | 0.9 | 3.5 | 0.00 | 0.25 | 0.00 | 77 | 1011.6 |
| 20260508002042 | 52 | 90 | 0.9 | 1.7 | 0.00 | 0.25 | 0.00 | 77 | 1011.6 |
| 20260508001548 | 52 | 112 | 0.0 | 1.7 | 0.00 | 0.25 | 0.00 | 77 | 1011.6 |
| 20260508001042 | 52 | 112 | 0.0 | 1.7 | 0.00 | 0.25 | 0.00 | 77 | 1011.7 |
| 20260508000544 | 52 | 0 | 0.0 | 2.6 | 0.00 | 0.25 | 0.00 | 77 | 1011.8 |
| 20260508000050 | 52 | 0 | 0.9 | 2.6 | 0.00 | 0.25 | 0.00 | 77 | 1011.8 |
| 20260507235545 | 52 | 0 | 0.0 | 3.5 | 0.00 | 0.25 | 0.00 | 77 | 1011.9 |
| 20260507235044 | 52 | 0 | 0.0 | 3.5 | 0.00 | 0.25 | 0.00 | 76 | 1011.9 |
| 20260507234551 | 52 | 36 | 0.0 | 2.6 | 0.00 | 0.25 | 0.00 | 76 | 1011.9 |
| 20260507234044 | 52 | 0 | 0.0 | 3.5 | 0.00 | 0.25 | 0.00 | 76 | 1011.8 |
| 20260507233542 | 52 | 0 | 0.0 | 3.5 | 0.00 | 0.25 | 0.00 | 75 | 1011.8 |
| 20260507233052 | 52 | 121 | 0.9 | 3.5 | 0.00 | 0.25 | 0.00 | 75 | 1011.9 |
| 20260507232547 | 52 | 168 | 0.9 | 3.5 | 0.00 | 0.25 | 0.00 | 75 | 1012.0 |
| 20260507232042 | 53 | 0 | 0.9 | 3.5 | 0.00 | 0.25 | 0.00 | 74 | 1012.0 |
| 20260507231555 | 53 | 54 | 0.0 | 2.6 | 0.00 | 0.25 | 0.00 | 74 | 1012.1 |
| 20260507231044 | 53 | 176 | 0.0 | 1.7 | 0.00 | 0.25 | 0.00 | 74 | 1012.1 |
| 20260507230543 | 53 | 0 | 0.0 | 1.7 | 0.00 | 0.25 | 0.00 | 73 | 1012.2 |
| 20260507230059 | 53 | 0 | 0.0 | 1.7 | 0.00 | 0.25 | 0.00 | 73 | 1012.3 |
| 20260507225545 | 53 | 0 | 0.0 | 1.7 | 0.00 | 0.25 | 0.00 | 73 | 1012.3 |
| 20260507225045 | 53 | 176 | 0.0 | 1.7 | 0.00 | 0.25 | 0.00 | 73 | 1012.4 |
| 20260507224553 | 53 | 0 | 0.0 | 3.5 | 0.00 | 0.25 | 0.00 | 73 | 1012.4 |
| 20260507224044 | 53 | 0 | 0.0 | 3.5 | 0.00 | 0.25 | 0.00 | 73 | 1012.4 |
| 20260507223547 | 53 | 0 | 0.0 | 4.3 | 0.00 | 0.25 | 0.00 | 73 | 1012.2 |
| 20260507223048 | 53 | 109 | 0.9 | 4.3 | 0.00 | 0.25 | 0.00 | 73 | 1012.2 |
| 20260507222543 | 53 | 0 | 1.7 | 4.3 | 0.00 | 0.25 | 0.00 | 73 | 1012.2 |
| 20260507222044 | 53 | 121 | 1.7 | 5.2 | 0.00 | 0.25 | 0.00 | 73 | 1012.2 |
| 20260507221551 | 54 | 114 | 1.7 | 5.2 | 0.00 | 0.25 | 0.00 | 72 | 1012.3 |
| 20260507221048 | 54 | 149 | 0.9 | 2.6 | 0.00 | 0.25 | 0.00 | 72 | 1012.3 |
| 20260507220542 | 54 | 0 | 0.0 | 3.5 | 0.00 | 0.25 | 0.00 | 72 | 1012.3 |
| 20260507220051 | 54 | 148 | 0.9 | 3.5 | 0.00 | 0.25 | 0.00 | 71 | 1012.4 |
| 20260507215547 | 54 | 154 | 0.9 | 3.5 | 0.00 | 0.25 | 0.25 | 71 | 1012.4 |
| 20260507215044 | 54 | 136 | 0.0 | 3.5 | 0.00 | 0.25 | 0.25 | 71 | 1012.3 |
| 20260507214552 | 54 | 0 | 0.0 | 3.5 | 0.00 | 0.25 | 0.25 | 71 | 1012.2 |
| 20260507214044 | 54 | 136 | 0.9 | 3.5 | 0.00 | 0.25 | 0.25 | 71 | 1012.1 |
| 20260507213543 | 54 | 146 | 0.9 | 3.5 | 0.00 | 0.25 | 0.25 | 71 | 1012.2 |
| 20260507213106 | 54 | 155 | 0.0 | 3.5 | 0.00 | 0.25 | 0.25 | 71 | 1012.1 |
| 20260507212545 | 54 | 0 | 0.9 | 4.3 | 0.00 | 0.25 | 0.25 | 71 | 1012.1 |
| 20260507212045 | 55 | 148 | 0.9 | 4.3 | 0.00 | 0.25 | 0.25 | 71 | 1012.1 |
| 20260507211557 | 55 | 168 | 0.9 | 4.3 | 0.00 | 0.25 | 0.25 | 70 | 1012.1 |
| 20260507211043 | 55 | 157 | 0.9 | 4.3 | 0.00 | 0.25 | 0.25 | 69 | 1012.1 |
| 20260507210545 | 55 | 157 | 0.9 | 4.3 | 0.00 | 0.25 | 0.25 | 68 | 1012.0 |
| 20260507210058 | 55 | 87 | 0.0 | 2.6 | 0.00 | 0.25 | 0.25 | 68 | 1011.9 |
| 20260507205544 | 55 | 134 | 0.0 | 3.5 | 0.00 | 0.25 | 0.25 | 68 | 1011.8 |
| 20260507205047 | 55 | 0 | 0.9 | 3.5 | 0.00 | 0.25 | 0.25 | 67 | 1011.9 |
| 20260507204557 | 55 | 64 | 0.0 | 2.6 | 0.00 | 0.25 | 0.25 | 68 | 1011.7 |
| 20260507204042 | 55 | 0 | 0.0 | 2.6 | 0.00 | 0.25 | 0.25 | 68 | 1011.6 |
| 20260507203544 | 55 | 0 | 0.0 | 3.5 | 0.00 | 0.25 | 0.25 | 67 | 1011.5 |
| 20260507203056 | 55 | 0 | 0.9 | 3.5 | 0.00 | 0.25 | 0.25 | 67 | 1011.4 |
| 20260507202543 | 55 | 67 | 0.9 | 3.5 | 0.00 | 0.25 | 0.25 | 67 | 1011.3 |
| 20260507202042 | 55 | 0 | 0.0 | 3.5 | 0.00 | 0.25 | 0.25 | 67 | 1011.3 |
| 20260507201603 | 55 | 0 | 0.0 | 4.3 | 0.00 | 0.25 | 0.25 | 66 | 1011.1 |
| 20260507201044 | 55 | 0 | 0.0 | 4.3 | 0.00 | 0.25 | 0.25 | 66 | 1011.2 |
| 20260507200544 | 55 | 0 | 1.7 | 5.2 | 0.00 | 0.25 | 0.25 | 66 | 1010.9 |
| 20260507200056 | 55 | 146 | 2.6 | 5.2 | 0.00 | 0.25 | 0.25 | 67 | 1011.0 |
| 20260507195543 | 56 | 0 | 0.9 | 4.3 | 0.00 | 0.25 | 0.25 | 67 | 1010.9 |
| 20260507195045 | 56 | 70 | 0.9 | 4.3 | 0.00 | 0.25 | 0.25 | 67 | 1010.8 |
| 20260507194603 | 56 | 0 | 1.7 | 3.5 | 0.00 | 0.25 | 0.25 | 67 | 1010.7 |
| 20260507194044 | 56 | 0 | 0.9 | 3.5 | 0.00 | 0.25 | 0.25 | 67 | 1010.7 |
| 20260507193546 | 56 | 57 | 0.0 | 3.5 | 0.00 | 0.25 | 0.25 | 66 | 1010.6 |
| 20260507193057 | 56 | 60 | 0.9 | 2.6 | 0.00 | 0.25 | 0.25 | 66 | 1010.5 |
| 20260507192542 | 56 | 77 | 0.0 | 2.6 | 0.00 | 0.25 | 0.25 | 65 | 1010.3 |
| 20260507192042 | 56 | 58 | 0.9 | 2.6 | 0.00 | 0.25 | 0.25 | 65 | 1010.3 |
| 20260507191615 | 56 | 87 | 0.9 | 2.6 | 0.00 | 0.25 | 0.25 | 65 | 1010.3 |
| 20260507191043 | 56 | 72 | 0.0 | 3.5 | 0.00 | 0.25 | 0.25 | 64 | 1010.3 |
| 20260507190544 | 56 | 72 | 0.9 | 3.5 | 0.00 | 0.25 | 0.25 | 63 | 1010.3 |
| 20260507190051 | 57 | 26 | 0.9 | 3.5 | 0.00 | 0.25 | 0.25 | 64 | 1010.1 |
| 20260507185541 | 57 | 0 | 0.9 | 3.5 | 0.00 | 0.25 | 0.25 | 63 | 1009.9 |
| 20260507185045 | 57 | 0 | 0.9 | 3.5 | 0.00 | 0.25 | 0.25 | 62 | 1009.9 |
| 20260507184602 | 57 | 0 | 0.9 | 3.5 | 0.00 | 0.25 | 0.25 | 61 | 1010.0 |
| 20260507184045 | 57 | 358 | 0.9 | 5.2 | 0.00 | 0.25 | 0.25 | 62 | 1009.9 |
| 20260507183544 | 57 | 43 | 0.9 | 5.2 | 0.00 | 0.25 | 0.25 | 62 | 1009.8 |
| 20260507183104 | 57 | 10 | 1.7 | 5.2 | 0.00 | 0.25 | 0.25 | 61 | 1009.7 |
| 20260507182546 | 57 | 14 | 1.7 | 4.3 | 0.00 | 0.25 | 0.25 | 62 | 1009.7 |
| 20260507182045 | 57 | 351 | 1.7 | 4.3 | 0.00 | 0.25 | 0.25 | 61 | 1009.6 |
| 20260507181555 | 57 | 24 | 0.0 | 4.3 | 0.00 | 0.25 | 0.25 | 62 | 1009.5 |
| 20260507181045 | 57 | 0 | 1.7 | 4.3 | 0.00 | 0.25 | 0.25 | 62 | 1009.6 |
| 20260507180543 | 57 | 5 | 1.7 | 3.5 | 0.00 | 0.25 | 0.25 | 63 | 1009.6 |
| 20260507180056 | 57 | 0 | 1.7 | 7.0 | 0.00 | 0.25 | 0.25 | 62 | 1009.6 |
| 20260507175548 | 57 | 68 | 1.7 | 7.0 | 0.00 | 0.25 | 0.25 | 62 | 1009.6 |
| 20260507175045 | 57 | 76 | 1.7 | 5.2 | 0.00 | 0.25 | 0.25 | 64 | 1009.6 |
| 20260507174557 | 57 | 174 | 0.9 | 5.2 | 0.00 | 0.25 | 0.25 | 63 | 1009.6 |
| 20260507174042 | 57 | 60 | 0.9 | 5.2 | 0.00 | 0.25 | 0.25 | 64 | 1009.6 |
| 20260507173544 | 56 | 116 | 0.9 | 5.2 | 0.00 | 0.25 | 0.25 | 64 | 1009.7 |
| 20260507173057 | 57 | 0 | 0.9 | 5.2 | 0.00 | 0.25 | 0.25 | 64 | 1009.6 |
| 20260507172544 | 57 | 61 | 0.9 | 5.2 | 0.00 | 0.25 | 0.25 | 63 | 1009.7 |
| 20260507172045 | 57 | 62 | 0.9 | 7.0 | 0.00 | 0.25 | 0.25 | 63 | 1009.8 |
| 20260507171604 | 57 | 135 | 0.9 | 7.0 | 0.00 | 0.25 | 0.25 | 63 | 1009.9 |
| 20260507171045 | 58 | 15 | 2.6 | 7.0 | 0.00 | 0.25 | 0.25 | 62 | 1009.8 |
| 20260507170544 | 58 | 43 | 1.7 | 4.3 | 0.00 | 0.25 | 0.25 | 63 | 1009.9 |
| 20260507170055 | 58 | 0 | 0.9 | 7.8 | 0.00 | 0.25 | 0.25 | 64 | 1009.8 |
| 20260507165542 | 57 | 4 | 1.7 | 7.8 | 0.00 | 0.25 | 0.25 | 66 | 1009.8 |
| 20260507165045 | 57 | 14 | 3.5 | 7.8 | 0.00 | 0.25 | 0.25 | 64 | 1009.6 |
| 20260507164619 | 57 | 37 | 1.7 | 7.0 | 0.00 | 0.25 | 0.25 | 67 | 1009.7 |
| 20260507164045 | 56 | 85 | 1.7 | 9.6 | 0.00 | 0.25 | 0.25 | 67 | 1009.6 |
| 20260507163543 | 56 | 117 | 2.6 | 9.6 | 0.00 | 0.25 | 0.25 | 67 | 1009.7 |
| 20260507163053 | 57 | 341 | 1.7 | 7.8 | 0.00 | 0.25 | 0.25 | 68 | 1009.7 |
| 20260507162545 | 57 | 24 | 1.7 | 6.1 | 0.00 | 0.25 | 0.25 | 68 | 1009.7 |
| 20260507162045 | 56 | 7 | 0.9 | 5.2 | 0.00 | 0.25 | 0.25 | 71 | 1009.6 |
| 20260507161601 | 55 | 40 | 0.0 | 7.8 | 0.00 | 0.25 | 0.25 | 73 | 1009.6 |
| 20260507161044 | 54 | 93 | 1.7 | 7.8 | 0.00 | 0.25 | 0.25 | 72 | 1009.4 |
| 20260507160541 | 54 | 161 | 3.5 | 7.0 | 0.00 | 0.25 | 0.25 | 71 | 1009.4 |
| 20260507160052 | 54 | 63 | 3.5 | 7.8 | 0.01 | 0.25 | 0.25 | 71 | 1009.2 |
| 20260507155546 | 54 | 141 | 2.6 | 7.8 | 0.01 | 0.25 | 0.25 | 72 | 1009.2 |
| 20260507155045 | 54 | 148 | 4.3 | 7.8 | 0.01 | 0.25 | 0.25 | 72 | 1009.3 |
| 20260507154555 | 54 | 124 | 2.6 | 7.0 | 0.02 | 0.25 | 0.25 | 71 | 1009.2 |
| 20260507154042 | 54 | 132 | 1.7 | 7.0 | 0.03 | 0.25 | 0.25 | 73 | 1009.2 |
| 20260507153547 | 54 | 151 | 1.7 | 7.0 | 0.05 | 0.25 | 0.25 | 72 | 1009.2 |
| 20260507153052 | 54 | 110 | 2.6 | 6.1 | 0.06 | 0.25 | 0.25 | 71 | 1009.3 |
| 20260507152544 | 54 | 146 | 2.6 | 5.2 | 0.06 | 0.25 | 0.25 | 72 | 1009.4 |
| 20260507152046 | 54 | 141 | 2.6 | 5.2 | 0.07 | 0.25 | 0.25 | 73 | 1009.7 |
| 20260507151552 | 54 | 122 | 1.7 | 5.2 | 0.06 | 0.24 | 0.24 | 75 | 1010.0 |
| 20260507151042 | 54 | 130 | 1.7 | 7.8 | 0.07 | 0.24 | 0.24 | 74 | 1010.1 |
| 20260507150544 | 54 | 130 | 0.9 | 8.7 | 0.08 | 0.24 | 0.24 | 75 | 1010.2 |
| 20260507150054 | 53 | 205 | 3.5 | 8.7 | 0.08 | 0.23 | 0.23 | 75 | 1010.3 |
| 20260507145544 | 53 | 149 | 3.5 | 7.8 | 0.08 | 0.23 | 0.23 | 77 | 1010.3 |
| 20260507145041 | 53 | 179 | 2.6 | 8.7 | 0.11 | 0.23 | 0.23 | 78 | 1010.2 |
| 20260507144552 | 53 | 147 | 3.5 | 8.7 | 0.15 | 0.22 | 0.22 | 77 | 1010.2 |
| 20260507144045 | 53 | 194 | 5.2 | 7.8 | 0.18 | 0.21 | 0.21 | 76 | 1010.3 |
| 20260507143541 | 53 | 191 | 3.5 | 7.0 | 0.18 | 0.19 | 0.19 | 76 | 1010.4 |
| 20260507143108 | 53 | 190 | 3.5 | 8.7 | 0.18 | 0.18 | 0.18 | 75 | 1010.3 |
| 20260507142541 | 53 | 170 | 3.5 | 8.7 | 0.18 | 0.18 | 0.18 | 74 | 1010.1 |
| 20260507142045 | 54 | 124 | 1.7 | 7.0 | 0.17 | 0.18 | 0.18 | 73 | 1009.9 |
| 20260507141611 | 54 | 114 | 2.6 | 7.8 | 0.17 | 0.18 | 0.18 | 74 | 1010.0 |
| 20260507141048 | 53 | 153 | 1.7 | 7.8 | 0.15 | 0.16 | 0.16 | 77 | 1010.1 |
| 20260507140547 | 54 | 86 | 2.6 | 7.0 | 0.14 | 0.15 | 0.15 | 77 | 1010.3 |
| 20260507140056 | 53 | 70 | 2.6 | 7.8 | 0.14 | 0.14 | 0.14 | 76 | 1010.3 |
| 20260507135544 | 54 | 150 | 2.6 | 8.7 | 0.13 | 0.14 | 0.14 | 76 | 1010.4 |
| 20260507135045 | 54 | 176 | 2.6 | 13.0 | 0.11 | 0.11 | 0.11 | 75 | 1010.6 |
| 20260507134556 | 54 | 147 | 4.3 | 13.0 | 0.07 | 0.07 | 0.07 | 72 | 1010.7 |
| 20260507134042 | 55 | 152 | 5.2 | 10.4 | 0.03 | 0.03 | 0.03 | 72 | 1010.6 |
| 20260507133543 | 55 | 139 | 4.3 | 13.0 | 0.00 | 0.00 | 0.00 | 71 | 1010.4 |
| 20260507133101 | 55 | 155 | 5.2 | 13.0 | 0.00 | 0.00 | 0.00 | 72 | 1010.2 |
| 20260507132542 | 55 | 166 | 4.3 | 9.6 | 0.00 | 0.00 | 0.00 | 72 | 1010.0 |
| 20260507132042 | 56 | 108 | 3.5 | 9.6 | 0.00 | 0.00 | 0.00 | 72 | 1009.9 |
| 20260507131607 | 56 | 65 | 3.5 | 9.6 | 0.00 | 0.00 | 0.00 | 71 | 1009.8 |
| 20260507131044 | 56 | 161 | 2.6 | 9.6 | 0.00 | 0.00 | 0.00 | 70 | 1009.8 |
| 20260507130544 | 56 | 144 | 3.5 | 11.3 | 0.00 | 0.00 | 0.00 | 69 | 1009.8 |
| 20260507130056 | 57 | 134 | 5.2 | 11.3 | 0.00 | 0.00 | 0.00 | 67 | 1009.7 |
| 20260507125542 | 58 | 107 | 5.2 | 11.3 | 0.00 | 0.00 | 0.00 | 64 | 1009.7 |
| 20260507125045 | 61 | 112 | 3.5 | 8.7 | 0.00 | 0.00 | 0.00 | 59 | 1009.7 |
| 20260507124556 | 61 | 163 | 4.3 | 7.8 | 0.00 | 0.00 | 0.00 | 58 | 1009.5 |
| 20260507124044 | 61 | 170 | 3.5 | 8.7 | 0.00 | 0.00 | 0.00 | 57 | 1009.5 |
| 20260507123543 | 61 | 176 | 4.3 | 8.7 | 0.00 | 0.00 | 0.00 | 56 | 1009.6 |
| 20260507123110 | 62 | 180 | 1.7 | 7.8 | 0.00 | 0.00 | 0.00 | 55 | 1009.6 |
| 20260507122545 | 61 | 172 | 1.7 | 7.0 | 0.00 | 0.00 | 0.00 | 56 | 1009.6 |
| 20260507122047 | 62 | 154 | 2.6 | 7.0 | 0.00 | 0.00 | 0.00 | 55 | 1009.6 |
| 20260507121552 | 62 | 215 | 2.6 | 7.8 | 0.00 | 0.00 | 0.00 | 55 | 1009.6 |
| 20260507121042 | 62 | 152 | 2.6 | 7.8 | 0.00 | 0.00 | 0.00 | 55 | 1009.7 |
| 20260507120541 | 62 | 159 | 0.9 | 7.8 | 0.00 | 0.00 | 0.00 | 54 | 1009.7 |
| 20260507120053 | 62 | 79 | 0.9 | 7.8 | 0.00 | 0.00 | 0.00 | 55 | 1009.5 |
| 20260507115542 | 62 | 178 | 3.5 | 7.8 | 0.00 | 0.00 | 0.00 | 55 | 1009.5 |
| 20260507115041 | 62 | 244 | 1.7 | 7.8 | 0.00 | 0.00 | 0.00 | 55 | 1009.6 |
| 20260507114558 | 62 | 218 | 3.5 | 7.8 | 0.00 | 0.00 | 0.00 | 55 | 1009.7 |
| 20260507114043 | 62 | 148 | 0.9 | 5.2 | 0.00 | 0.00 | 0.00 | 56 | 1009.7 |
| 20260507113541 | 62 | 170 | 0.9 | 8.7 | 0.00 | 0.00 | 0.00 | 56 | 1009.8 |
| 20260507113051 | 62 | 173 | 2.6 | 9.6 | 0.00 | 0.00 | 0.00 | 56 | 1010.0 |
| 20260507112544 | 62 | 176 | 4.3 | 9.6 | 0.00 | 0.00 | 0.00 | 56 | 1010.0 |
| 20260507112041 | 62 | 0 | 0.9 | 7.0 | 0.00 | 0.00 | 0.00 | 55 | 1010.0 |
| 20260507111551 | 62 | 122 | 1.7 | 7.0 | 0.00 | 0.00 | 0.00 | 55 | 1010.2 |
| 20260507111044 | 61 | 0 | 3.5 | 7.0 | 0.00 | 0.00 | 0.00 | 56 | 1010.3 |
| 20260507110544 | 61 | 171 | 1.7 | 7.0 | 0.00 | 0.00 | 0.00 | 55 | 1010.3 |
| 20260507110055 | 63 | 182 | 0.9 | 4.3 | 0.00 | 0.00 | 0.00 | 54 | 1010.3 |
| 20260507105541 | 63 | 0 | 0.0 | 4.3 | 0.00 | 0.00 | 0.00 | 56 | 1010.4 |
| 20260507105045 | 61 | 171 | 1.7 | 4.3 | 0.00 | 0.00 | 0.00 | 57 | 1010.4 |
| 20260507104558 | 61 | 181 | 0.9 | 7.0 | 0.00 | 0.00 | 0.00 | 58 | 1010.5 |
| 20260507104044 | 60 | 73 | 0.9 | 7.0 | 0.00 | 0.00 | 0.00 | 59 | 1010.5 |
| 20260507103546 | 60 | 126 | 1.7 | 5.2 | 0.00 | 0.00 | 0.00 | 59 | 1010.7 |
| 20260507103048 | 60 | 107 | 0.9 | 7.0 | 0.00 | 0.00 | 0.00 | 58 | 1010.8 |
| 20260507102545 | 59 | 41 | 1.7 | 7.8 | 0.00 | 0.00 | 0.00 | 60 | 1010.8 |
| 20260507102045 | 59 | 179 | 1.7 | 7.8 | 0.00 | 0.00 | 0.00 | 60 | 1010.8 |
| 20260507101550 | 59 | 188 | 1.7 | 7.8 | 0.00 | 0.00 | 0.00 | 60 | 1011.0 |
| 20260507101045 | 60 | 153 | 0.9 | 6.1 | 0.00 | 0.00 | 0.00 | 60 | 1011.0 |
| 20260507100542 | 60 | 77 | 2.6 | 6.1 | 0.00 | 0.00 | 0.00 | 60 | 1011.0 |
| 20260507100059 | 61 | 5 | 1.7 | 4.3 | 0.00 | 0.00 | 0.00 | 59 | 1011.1 |
| 20260507095545 | 59 | 0 | 1.7 | 7.8 | 0.00 | 0.00 | 0.00 | 61 | 1011.0 |
| 20260507095045 | 59 | 0 | 0.9 | 7.8 | 0.00 | 0.00 | 0.00 | 60 | 1010.9 |
| 20260507094550 | 59 | 74 | 1.7 | 7.8 | 0.00 | 0.00 | 0.00 | 61 | 1010.9 |
| 20260507094045 | 59 | 346 | 1.7 | 6.1 | 0.00 | 0.00 | 0.00 | 61 | 1010.9 |
| 20260507093545 | 58 | 56 | 1.7 | 5.2 | 0.00 | 0.00 | 0.00 | 62 | 1010.9 |
| 20260507093052 | 58 | 18 | 0.9 | 7.0 | 0.00 | 0.00 | 0.00 | 65 | 1010.9 |
| 20260507092545 | 57 | 163 | 1.7 | 7.0 | 0.00 | 0.00 | 0.00 | 63 | 1010.9 |
| 20260507092043 | 58 | 191 | 2.6 | 6.1 | 0.00 | 0.00 | 0.00 | 63 | 1010.9 |
| 20260507091552 | 58 | 116 | 0.9 | 6.1 | 0.00 | 0.00 | 0.00 | 63 | 1011.0 |
| 20260507091045 | 58 | 205 | 1.7 | 7.8 | 0.00 | 0.00 | 0.00 | 61 | 1010.9 |
| 20260507090543 | 58 | 66 | 0.9 | 7.8 | 0.00 | 0.00 | 0.00 | 62 | 1010.9 |
| 20260507090100 | 58 | 1 | 2.6 | 9.6 | 0.00 | 0.00 | 0.00 | 61 | 1010.9 |
| 20260507085544 | 58 | 114 | 3.5 | 9.6 | 0.00 | 0.00 | 0.00 | 63 | 1010.9 |
| 20260507085043 | 58 | 12 | 6.1 | 9.6 | 0.00 | 0.00 | 0.00 | 62 | 1010.9 |
| 20260507084556 | 57 | 0 | 1.7 | 7.0 | 0.00 | 0.00 | 0.00 | 64 | 1010.9 |
| 20260507084042 | 56 | 70 | 2.6 | 6.1 | 0.00 | 0.00 | 0.00 | 65 | 1010.9 |
| 20260507083544 | 57 | 81 | 0.0 | 5.2 | 0.00 | 0.00 | 0.00 | 65 | 1011.0 |
| 20260507083058 | 56 | 134 | 1.7 | 7.8 | 0.00 | 0.00 | 0.00 | 65 | 1010.9 |
| 20260507082544 | 56 | 55 | 2.6 | 7.8 | 0.00 | 0.00 | 0.00 | 67 | 1010.9 |
| 20260507082044 | 55 | 7 | 3.5 | 7.0 | 0.00 | 0.00 | 0.00 | 67 | 1010.9 |
| 20260507081556 | 55 | 62 | 1.7 | 5.2 | 0.00 | 0.00 | 0.00 | 67 | 1011.0 |
| 20260507081045 | 55 | 118 | 0.9 | 6.1 | 0.00 | 0.00 | 0.00 | 67 | 1011.0 |
| 20260507080544 | 55 | 39 | 2.6 | 6.1 | 0.00 | 0.00 | 0.00 | 67 | 1010.9 |
| 20260507075545 | 55 | 70 | 2.6 | 4.3 | 0.00 | 0.00 | 0.00 | 67 | 1010.9 |
| 20260507075045 | 55 | 338 | 1.7 | 7.8 | 0.00 | 0.00 | 0.00 | 68 | 1010.9 |
| 20260507074550 | 54 | 28 | 0.9 | 7.8 | 0.00 | 0.00 | 0.00 | 68 | 1010.7 |
| 20260507074042 | 54 | 64 | 3.5 | 7.8 | 0.00 | 0.00 | 0.00 | 68 | 1010.7 |
| 20260507073548 | 54 | 16 | 1.7 | 8.7 | 0.00 | 0.00 | 0.00 | 68 | 1010.7 |
| 20260507073051 | 54 | 76 | 2.6 | 8.7 | 0.00 | 0.00 | 0.00 | 68 | 1010.7 |
| 20260507072544 | 54 | 37 | 0.9 | 5.2 | 0.00 | 0.00 | 0.00 | 68 | 1010.7 |
| 20260507072045 | 54 | 36 | 1.7 | 5.2 | 0.00 | 0.00 | 0.00 | 68 | 1010.8 |
| 20260507071553 | 54 | 22 | 0.9 | 3.5 | 0.00 | 0.00 | 0.00 | 68 | 1010.8 |
| 20260507071044 | 54 | 26 | 0.0 | 4.3 | 0.00 | 0.00 | 0.00 | 68 | 1010.8 |
| 20260507070541 | 54 | 63 | 0.0 | 4.3 | 0.00 | 0.00 | 0.00 | 68 | 1010.8 |
| 20260507070058 | 54 | 0 | 1.7 | 5.2 | 0.00 | 0.00 | 0.00 | 68 | 1010.8 |